[[{"header":{"parameterUnit":"m.s-1","parameterCategory":1,"la1":30.2991,"la2":30.254,"lo1":-89.0895,"lo2":-89.0444,"dy":0.0017,"dx":0.0017,"nx":28,"ny":28,"refTime":"2024-05-29T21:00:00:Z","depth":0,"parameterNumber":2,"parameterNumberName":"U-component_of_WINDS"},"data":[0,0,0,0,0,0,0,0,0,0,0,0,0,0,0,0,0,0,0,0,0,0,0,0,0,0,0,0,0,0,0,0,0,0,0,0,0,0,0,0,0,0,0,0,0,0,0,0,0,0,0,0,0,0,0,0,0,0,-3.5038,-3.504,0,-3.5198,-3.52,-3.5202,-3.5258,-3.5258,-3.5257,-3.5257,-3.542,-3.5424,-3.5429,0,0,0,0,0,0,0,0,0,0,0,0,0,-3.4778,-3.4782,-3.5038,-3.504,-3.5042,-3.5198,-3.52,-3.5203,-3.5258,-3.5258,-3.5257,-3.5256,-3.5418,-3.5424,-3.543,0,0,0,0,0,0,0,0,0,0,0,0,0,-3.491,-3.4784,-3.5037,-3.5088,-3.5095,-3.5198,-3.52,-3.5203,-3.5259,-3.5258,-3.5257,-3.5256,-3.5416,-3.5423,-3.543,-3.5494,0,0,-3.5453,-3.5456,0,0,0,0,0,0,0,0,-3.4902,-3.4919,-3.5079,-3.5085,-3.5092,-3.5207,-3.5169,-3.5301,-3.5259,-3.5196,-3.5257,-3.5256,-3.535,-3.5362,-3.5394,-3.5501,-3.5508,-3.5454,-3.5458,-3.5461,-3.5463,0,0,0,0,0,0,0,-3.4893,-3.4913,-3.5101,-3.5081,-3.5089,-3.5103,-3.5121,-3.5194,-3.5276,-3.5202,-3.5206,-3.5224,-3.5353,-3.5387,-3.5399,-3.5511,-3.5453,-3.546,-3.5464,-3.5467,-3.5678,-3.5679,0,0,0,0,0,0,-3.4875,-3.4905,-3.5096,-3.5106,-3.4993,-3.5108,-3.5128,-3.5171,-3.5275,-3.529,-3.5225,-3.5227,-3.5375,-3.539,-3.5405,-3.5485,-3.5461,-3.5468,-3.5472,-3.5677,-3.5678,-3.5679,0,0,0,0,0,0,-3.487,-3.4892,-3.509,-3.5007,-3.5033,-3.5114,-3.5162,-3.5175,-3.5209,-3.5293,-3.5308,-3.5245,-3.5375,-3.5394,-3.5471,-3.5492,-3.5471,-3.5478,-3.5675,-3.5677,-3.5679,-3.5647,0,0,0,0,0,0,-3.4862,-3.489,-3.4915,-3.5007,-3.5037,-3.5154,-3.5163,-3.5179,-3.5222,-3.5225,-3.5316,-3.533,-3.5376,-3.546,-3.5479,-3.5501,-3.5484,-3.5674,-3.5676,-3.5678,-3.5646,-3.5647,-3.5648,0,0,0,0,0,-3.4853,-3.4899,-3.4916,-3.4939,-3.507,-3.5155,-3.5172,-3.5225,-3.5223,-3.5249,-3.5303,-3.5327,-3.5487,-3.5467,-3.5489,-3.5514,-3.5673,-3.5675,-3.5678,-3.5646,-3.5647,-3.5648,0,0,0,0,0,0,-3.4807,-3.4912,-3.4932,-3.501,-3.5073,-3.5164,-3.5198,-3.5224,-3.5289,-3.5289,-3.5351,-3.5371,-3.5443,-3.5487,-3.5463,-3.5581,-3.5581,-3.5588,-3.5549,-3.5551,-3.5552,-3.5539,-3.549,0,0,0,0,0,-3.4806,-3.4866,-3.4955,-3.5015,-3.5046,-3.5116,-3.5155,-3.519,-3.5258,-3.5285,-3.5345,-3.5409,-3.5474,-3.5515,-3.558,-3.5653,-3.5674,-3.5681,-3.5682,-3.5682,-3.5687,-3.5729,-3.5733,-3.5688,-3.5688,-3.5688,0,0,-3.4805,-3.487,-3.4904,-3.5008,-3.5061,-3.5121,-3.5139,-3.5202,-3.5247,-3.5295,-3.5371,-3.5417,-3.5493,-3.5568,-3.5605,-3.5607,-3.5705,-3.5686,-3.5685,-3.569,-3.5732,-3.5736,-3.574,-3.569,-3.5689,-3.5689,0,0,-3.4832,-3.4888,-3.4944,-3.4997,-3.5078,-3.5124,-3.5138,-3.5225,-3.5258,-3.5335,-3.5372,-3.5427,-3.5537,-3.559,-3.5631,-3.5679,-3.5703,-3.5699,-3.5702,-3.5742,-3.5746,-3.5749,-3.5766,-3.5771,-3.5704,-3.5703,-3.5703,0,-3.482,-3.4913,-3.4969,-3.5031,-3.5075,-3.5122,-3.5178,-3.5227,-3.5324,-3.5353,-3.5355,-3.5494,-3.5549,-3.5637,-3.5649,-3.5681,-3.5698,-3.5688,-3.5741,-3.5745,-3.5749,-3.5765,-3.5771,-3.5702,-3.5702,-3.5703,-3.5703,0,-3.4894,-3.4958,-3.4993,-3.5086,-3.5134,-3.5193,-3.5258,-3.53,-3.5331,-3.5377,-3.5456,-3.5523,-3.5601,-3.5625,-3.5656,-3.5718,-3.5717,-3.5729,-3.573,-3.5751,-3.5767,-3.5774,-3.5701,-3.5701,-3.5701,-3.5702,0,0,-3.4896,-3.502,-3.5032,-3.5074,-3.5167,-3.5217,-3.5278,-3.5355,-3.5389,-3.5455,-3.5507,-3.56,-3.5612,-3.5658,-3.5696,-3.5731,-3.5764,-3.5739,-3.5742,-3.574,-3.5835,-3.5824,-3.5831,-3.5781,-3.5782,-3.5784,-3.5828,0,-3.4935,-3.5046,-3.5098,-3.5186,-3.5245,-3.529,-3.5343,-3.5405,-3.545,-3.5507,-3.5557,-3.5621,-3.5633,-3.5661,-3.5698,-3.5752,-3.5783,-3.575,-3.5829,-3.5831,-3.5807,-3.5839,-3.5829,-3.5867,-3.5835,-3.5836,-3.5837,0,-3.4995,-3.5061,-3.5154,-3.5239,-3.5266,-3.5312,-3.5387,-3.5441,-3.5513,-3.5543,-3.5595,-3.5632,-3.5697,-3.5694,-3.5785,-3.576,-3.5797,-3.5828,-3.5831,-3.5839,-3.5834,-3.5847,-3.5881,-3.5886,-3.5848,-3.5847,-3.5846,0,-3.4986,-3.5098,-3.5168,-3.5203,-3.5305,-3.5336,-3.538,-3.545,-3.5493,-3.5559,-3.5587,-3.566,-3.5699,-3.5754,-3.5808,-3.5802,-3.5893,-3.5896,-3.592,-3.5918,-3.5936,-3.5933,-3.5974,-3.5961,-3.5961,-3.596,-3.596,0,-3.5023,-3.5078,-3.5165,-3.5208,-3.5271,-3.5331,-3.5391,-3.5438,-3.5501,-3.5553,-3.5598,-3.5646,-3.5716,-3.5773,-3.5816,-3.5884,-3.5902,-3.5928,-3.5938,-3.5923,-3.5919,-3.5946,-3.5944,-3.5962,-3.5962,-3.5961,-3.5961,0,-3.5023,-3.5084,-3.5163,-3.5253,-3.5277,-3.5319,-3.5395,-3.5439,-3.5486,-3.5552,-3.5571,-3.5646,-3.5715,-3.5776,-3.5868,-3.5897,-3.5966,-3.598,-3.5942,-3.5947,-3.5968,-3.5964,-3.6026,-3.6037,-3.6016,-3.6017,-3.6017,0,-3.5042,-3.5086,-3.518,-3.5218,-3.5261,-3.5323,-3.5367,-3.5428,-3.5472,-3.5557,-3.559,-3.5663,-3.5724,-3.5833,-3.5895,-3.5966,-3.5981,-3.5998,-3.5991,-3.5975,-3.598,-3.5976,-3.598,-3.5997,-3.5997,-3.5997,-3.5997,0,-3.5069,-3.5097,-3.5159,-3.5232,-3.5284,-3.5344,-3.5405,-3.5434,-3.5506,-3.5554,-3.5626,-3.5673,-3.5767,-3.5839,-3.5916,-3.5961,-3.5991,-3.5998,-3.6008,-3.5992,-3.5968,-3.598,-3.5941,-3.5996,-3.5996,-3.5996,-3.5996,-3.5996,-3.5079,-3.5119,-3.5192,-3.526,-3.5312,-3.5369,-3.5413,-3.5467,-3.5528,-3.5609,-3.5642,-3.5714,-3.5785,-3.5892,-3.5937,-3.5995,-3.6,-3.6013,-3.6016,-3.6018,-3.6015,-3.5959,-3.6009,-3.601,-3.601,-3.601,-3.601,0,-3.5107,-3.5156,-3.5218,-3.5302,-3.5356,-3.538,-3.5449,-3.5492,-3.5555,-3.5619,-3.5679,-3.5761,-3.5831,-3.5899,-3.5972,-3.6005,-3.6021,-3.6022,-3.602,-3.603,-3.6007,-3.5992,-3.6009,-3.6009,-3.6009,-3.6009,-3.6008,-3.6008,-3.5128,-3.5197,-3.5234,-3.533,-3.5379,-3.545,-3.5488,-3.554,-3.5591,-3.5681,-3.5739,-3.5783,-3.5849,-3.5927,-3.5992,-3.601,-3.6035,-3.6033,-3.6054,-3.6032,-3.6031,-3.603,-3.6016,-3.6038,-3.6038,-3.6072,-3.6072,-3.6072]},{"header":{"parameterUnit":"m.s-1","parameterCategory":1,"la1":30.2991,"la2":30.254,"lo1":-89.0895,"lo2":-89.0444,"dy":0.0017,"dx":0.0017,"nx":28,"ny":28,"refTime":"2024-05-29T21:00:00:Z","depth":0,"parameterNumber":3,"parameterNumberName":"V-component_of_WINDS"},"data":[0,0,0,0,0,0,0,0,0,0,0,0,0,0,0,0,0,0,0,0,0,0,0,0,0,0,0,0,0,0,0,0,0,0,0,0,0,0,0,0,0,0,0,0,0,0,0,0,0,0,0,0,0,0,0,0,0,0,4.284,4.2841,0,4.2895,4.2896,4.2896,4.284,4.2838,4.2836,4.2834,4.2886,4.2889,4.2892,0,0,0,0,0,0,0,0,0,0,0,0,0,4.2683,4.2687,4.284,4.2841,4.2842,4.2895,4.2896,4.2897,4.2841,4.2838,4.2835,4.2833,4.2885,4.2889,4.2893,0,0,0,0,0,0,0,0,0,0,0,0,0,4.2746,4.2688,4.284,4.282,4.2819,4.2895,4.2896,4.2897,4.2841,4.2838,4.2835,4.2832,4.2883,4.2888,4.2893,4.299,0,0,4.2909,4.2911,0,0,0,0,0,0,0,0,4.2743,4.2752,4.2823,4.2822,4.2821,4.2858,4.2859,4.2928,4.2842,4.2833,4.2834,4.283,4.2879,4.2884,4.2901,4.2992,4.2995,4.2909,4.2912,4.2915,4.2916,0,0,0,0,0,0,0,4.2738,4.2749,4.2862,4.2824,4.2823,4.2808,4.2813,4.2872,4.2873,4.2833,4.2829,4.2837,4.2878,4.2897,4.2902,4.2995,4.2909,4.2914,4.2917,4.2919,4.3168,4.3171,0,0,0,0,0,0,4.2737,4.2746,4.286,4.2864,4.2773,4.2813,4.2819,4.2849,4.2872,4.2873,4.284,4.2834,4.2889,4.2896,4.2904,4.3017,4.2915,4.2919,4.2922,4.3164,4.3169,4.3172,0,0,0,0,0,0,4.2734,4.2748,4.2858,4.2804,4.2817,4.2819,4.2853,4.2852,4.2871,4.2877,4.2877,4.2859,4.2887,4.2897,4.2969,4.3018,4.2922,4.2926,4.316,4.3166,4.317,4.3246,0,0,0,0,0,0,4.2729,4.2747,4.2784,4.2805,4.282,4.2924,4.2857,4.2855,4.288,4.2873,4.2895,4.2896,4.2885,4.2962,4.2974,4.3024,4.293,4.3156,4.3162,4.3169,4.3239,4.3253,4.3265,0,0,0,0,0,4.2724,4.2803,4.2786,4.2801,4.2867,4.2927,4.2935,4.2922,4.2885,4.2921,4.2926,4.2895,4.3012,4.297,4.2983,4.3035,4.3152,4.3161,4.3168,4.3233,4.325,4.3265,0,0,0,0,0,0,4.2785,4.2805,4.2787,4.2875,4.29,4.2917,4.2963,4.2941,4.2976,4.2968,4.295,4.2955,4.3032,4.3041,4.2994,4.3129,4.3076,4.3087,4.312,4.3137,4.315,4.3145,4.2935,0,0,0,0,0,4.281,4.2858,4.2872,4.2948,4.2961,4.2961,4.2986,4.2975,4.2999,4.3008,4.3018,4.3041,4.3083,4.3111,4.315,4.3241,4.3244,4.3283,4.3297,4.3307,4.3316,4.3364,4.3381,4.3199,4.3199,4.3198,0,0,4.2859,4.2876,4.2907,4.2961,4.2978,4.3027,4.2969,4.3024,4.3059,4.3016,4.3085,4.3093,4.3118,4.3201,4.3237,4.321,4.3368,4.3318,4.3326,4.3329,4.3374,4.3391,4.3407,4.3204,4.3203,4.3202,0,0,4.2974,4.2992,4.3057,4.3077,4.3105,4.3105,4.312,4.3142,4.3146,4.3215,4.3184,4.3226,4.3298,4.3317,4.3336,4.346,4.3433,4.3474,4.3541,4.3588,4.3602,4.3615,4.3657,4.3673,4.3483,4.3483,4.3484,0,4.3031,4.3105,4.3093,4.315,4.3174,4.314,4.3204,4.3223,4.3263,4.3279,4.325,4.334,4.3355,4.344,4.3471,4.3488,4.3504,4.347,4.3602,4.3614,4.3626,4.3666,4.3682,4.3488,4.3487,4.3487,4.3487,0,4.3173,4.3224,4.3273,4.3314,4.3344,4.3404,4.34,4.3432,4.3419,4.3421,4.3492,4.3509,4.355,4.357,4.3557,4.3654,4.3636,4.3605,4.355,4.3648,4.3685,4.3701,4.3495,4.3493,4.3492,4.349,0,0,4.3325,4.336,4.3378,4.3395,4.3425,4.3464,4.3523,4.3565,4.3592,4.3621,4.3668,4.3732,4.3703,4.3725,4.3714,4.3755,4.385,4.3718,4.3719,4.374,4.3956,4.3978,4.3996,4.3834,4.3837,4.3839,4.3954,0,4.3439,4.3542,4.3534,4.3631,4.3678,4.3647,4.3698,4.3721,4.3725,4.3765,4.3769,4.3813,4.3773,4.3786,4.3826,4.383,4.3893,4.3822,4.3876,4.3878,4.3868,4.4016,4.4039,4.4146,4.3968,4.3971,4.3973,0,4.3585,4.362,4.3722,4.3745,4.3765,4.3811,4.3849,4.3888,4.3913,4.3913,4.3939,4.3921,4.3979,4.3925,4.4004,4.3956,4.3978,4.3984,4.3988,4.399,4.3929,4.402,4.418,4.4196,4.3996,4.3994,4.3992,0,4.3683,4.3757,4.3827,4.3843,4.3872,4.3905,4.3919,4.3941,4.3967,4.4,4.4017,4.4056,4.4077,4.4107,4.41,4.4062,4.418,4.4126,4.418,4.418,4.4204,4.4202,4.4367,4.4222,4.4222,4.4222,4.4221,0,4.381,4.3873,4.3871,4.3914,4.3984,4.3974,4.4043,4.4052,4.4073,4.4116,4.4093,4.4133,4.4123,4.4163,4.4158,4.4223,4.4233,4.4234,4.4231,4.4234,4.4234,4.4246,4.4238,4.4226,4.4225,4.4224,4.4224,0,4.393,4.3932,4.4006,4.4028,4.4036,4.4086,4.4104,4.4144,4.4147,4.4202,4.4214,4.4219,4.4265,4.4262,4.4314,4.431,4.439,4.438,4.4382,4.4379,4.4432,4.4426,4.4609,4.4632,4.4474,4.4476,4.4477,0,4.4009,4.4057,4.4085,4.4113,4.4129,4.4175,4.4202,4.4194,4.4223,4.4256,4.4292,4.4337,4.4371,4.4447,4.4453,4.4493,4.4482,4.4544,4.4487,4.4489,4.448,4.4477,4.4481,4.4553,4.4555,4.4557,4.4558,0,4.4149,4.4148,4.4188,4.423,4.4263,4.4295,4.4323,4.4347,4.4343,4.4376,4.4424,4.4452,4.4506,4.4549,4.4587,4.4599,4.4578,4.4576,4.459,4.4593,4.4591,4.4591,4.4409,4.4571,4.457,4.4569,4.4568,4.4568,4.4249,4.4291,4.4317,4.4363,4.4384,4.4412,4.4451,4.446,4.45,4.4544,4.4537,4.4591,4.4615,4.4664,4.468,4.4721,4.4698,4.4719,4.4724,4.4729,4.4734,4.4587,4.4728,4.4727,4.4727,4.4727,4.4726,0,4.4386,4.4402,4.4445,4.4487,4.4523,4.4502,4.4533,4.4564,4.4612,4.4637,4.4673,4.4727,4.477,4.4782,4.4822,4.4853,4.4844,4.4863,4.486,4.4863,4.4753,4.4735,4.487,4.487,4.487,4.487,4.487,4.487,4.4462,4.453,4.4532,4.4611,4.4626,4.4679,4.4698,4.4723,4.4744,4.4806,4.4842,4.485,4.487,4.4912,4.495,4.4952,4.4967,4.4991,4.4988,4.4885,4.487,4.4857,4.484,4.4995,4.4995,4.5095,4.5096,4.5096]}]]